Regional Weather Roundup
Issued by NWS

Home | Current Version | Previous Version | Text Only | Print | Product List | Glossary On
Versions: 1 2 3 4 5 6 7 8 9 10 11 12 13 14 15 16 17 18 19 20 21 22 23 24 25 26 27 28 29 30 31 32 33 34 35 36 37 38 39 40 41 42 43 44 45 46 47 48 49 50
000
ASUS44 KMEG 160710
RWRTN
TENNESSEE HOURLY STATE WEATHER ROUNDUP
NATIONAL WEATHER SERVICE MEMPHIS TN
100 AM CST SAT DEC 16 2017

TNZ002-004-019-021-049-052-054-088>092-160800-
WEST TENNESSEE

CITY           SKY/WX    TMP DP  RH WIND       PRES   REMARKS
MEMPHIS INTL   CLOUDY    36  27  69 S13       30.21R WCI  27
NWS MEMPHIS      N/A     36 N/A N/A MISG        N/A
JACKSON        PTCLDY    33  26  75 S8        30.20S WCI  26
DYERSBURG      CLEAR     37  27  67 MISG        N/A
SOMERVILLE     CLEAR     34  27  75 S6        30.19S WCI  29
COVINGTON      CLEAR     34  27  75 SW8       30.20S WCI  27
UNION CITY     CLEAR     34  27  75 S8        30.16S WCI  27
BOLIVAR        CLEAR     32  27  80 S5        30.20S WCI  27
PARIS          MOCLDY    34  27  75 SW8       30.16S WCI  27
HUNTINGDON     MOCLDY    36  27  69 SW6       30.17S WCI  31
LEXINGTON      PTCLDY    28  25  86 CALM      30.20F
SELMER         CLEAR     30  25  80 SW3       30.21R
SAVANNAH       MOCLDY    30  27  86 S3        30.22S
$$

TNZ008-025-027-028-033-062-065-066-160800-
NORTH MIDDLE TENNESSEE

CITY           SKY/WX    TMP DP  RH WIND       PRES   REMARKS
NASHVILLE      CLEAR     30  23  75 S3        30.22S
PORTLAND       CLEAR     30  25  80 S9        30.18S WCI  22
CLARKSVILLE    CLEAR     32  23  69 S8        30.17S WCI  25
SMYRNA         CLEAR     25  22  88 SE5       30.24R WCI  19
COOKEVILLE     PTCLDY    21  19  93 SW3       30.21R
GALLATIN       PTCLDY    30  23  74 CALM      30.24R
CROSSVILLE     CLOUDY    23  19  85 CALM      30.18S
$$

TNZ061-075-076-078-094-096-097-160800-
SOUTH MIDDLE TENNESSEE

CITY           SKY/WX    TMP DP  RH WIND       PRES   REMARKS
FAYETTEVILLE   CLEAR     27  23  86 S3        30.22S
TULLAHOMA      PTCLDY    21  19  93 CALM      30.21S
WINCHESTER     CLEAR     21  18  86 CALM      30.23S
MCMINNVILLE    CLEAR     23  21  93 CALM      30.22R
COLUMBIA       PTCLDY    30  25  80 SE3       30.20S
SHELBYVILLE    CLEAR     23  21  93 E5        30.22S WCI  17
$$

TNZ017-018-042-046-047-160800-
NORTHEAST TENNESSEE

CITY           SKY/WX    TMP DP  RH WIND       PRES   REMARKS
TRI CITIES     CLOUDY    30  23  75 W6        30.19S WCI  24
ELIZABETHTON   CLOUDY    32  23  69 CALM      30.19R
$$

TNZ012-013-036-069-073-074-160800-
CENTRAL EAST TENNESSEE

CITY           SKY/WX    TMP DP  RH WIND       PRES   REMARKS
KNOXVILLE      CLOUDY    27  24  89 CALM      30.22S
OAK RIDGE      CLOUDY    26  22  84 SW3       30.24S
DOWNTOWN KNOXV   N/A     27  25  93 CALM      30.24R
GATLINBURG     CLOUDY    25  21  86 CALM      30.23R
MORRISTOWN     CLOUDY    28  23  80 CALM      30.20R
JACKSBORO      MOCLDY    23  23 100 CALM      30.25R
$$

TNZ083-085-099-160800-
SOUTHEAST TENNESSEE

CITY           SKY/WX    TMP DP  RH WIND       PRES   REMARKS
CHATTANOOGA    CLOUDY    26  21  81 CALM      30.25R
DAYTON         SUNNY     19  19 100 CALM      30.24R
$$

SKY/WX REPORTED AS FAIR MEANS FEW OR NO CLOUDS BELOW
12 THOUSAND FEET.





USA.gov is the U.S. government's official web portal to all federal, state and local government web resources and services.